TimePDT,TemperatureF,Dew PointF,Humidity,Sea Level PressureIn,VisibilityMPH,Wind Direction,Wind SpeedMPH,Gust SpeedMPH,PrecipitationIn,Events,Conditions,WindDirDegrees,DateUTC
12:15 AM,46.4,42.8,87,29.82,10.0,SSE,3.5,-,N/A,,Overcast,160,2012-10-20 07:15:00
12:35 AM,44.6,39.2,81,29.83,10.0,South,6.9,-,N/A,,Mostly Cloudy,190,2012-10-20 07:35:00
12:55 AM,42.8,39.2,87,29.84,10.0,SSW,6.9,-,N/A,,Scattered Clouds,210,2012-10-20 07:55:00
1:15 AM,42.8,39.2,87,29.83,10.0,SSW,9.2,-,N/A,,Mostly Cloudy,200,2012-10-20 08:15:00
1:35 AM,42.8,37.4,81,29.84,10.0,SSW,8.1,-,N/A,,Partly Cloudy,210,2012-10-20 08:35:00
1:55 AM,42.8,35.6,76,29.83,10.0,South,8.1,-,N/A,,Clear,190,2012-10-20 08:55:00
2:15 AM,41.0,35.6,81,29.85,10.0,SSW,6.9,-,N/A,,Clear,200,2012-10-20 09:15:00
2:35 AM,41.0,35.6,81,29.85,10.0,South,10.4,-,N/A,,Clear,190,2012-10-20 09:35:00
2:55 AM,41.0,37.4,87,29.86,10.0,South,12.7,-,N/A,,Scattered Clouds,190,2012-10-20 09:55:00
3:15 AM,41.0,35.6,81,29.85,10.0,South,11.5,-,N/A,,Partly Cloudy,190,2012-10-20 10:15:00
3:35 AM,41.0,35.6,81,29.85,10.0,SSW,10.4,-,N/A,,Clear,200,2012-10-20 10:35:00
3:55 AM,39.2,35.6,87,29.85,10.0,SSW,9.2,-,N/A,,Clear,200,2012-10-20 10:55:00
4:15 AM,41.0,33.8,76,29.84,10.0,South,11.5,18.4,N/A,,Clear,190,2012-10-20 11:15:00
4:35 AM,39.2,33.8,81,29.86,10.0,SSW,11.5,-,N/A,,Clear,200,2012-10-20 11:35:00
4:55 AM,39.2,35.6,87,29.85,10.0,SSW,12.7,-,N/A,,Clear,200,2012-10-20 11:55:00
5:15 AM,39.2,35.6,87,29.86,10.0,SSW,15.0,19.6,N/A,,Clear,200,2012-10-20 12:15:00
5:35 AM,39.2,35.6,87,29.86,10.0,SW,11.5,-,N/A,,Clear,220,2012-10-20 12:35:00
5:55 AM,39.2,33.8,81,29.85,10.0,SW,6.9,-,N/A,,Clear,230,2012-10-20 12:55:00
6:15 AM,41.0,35.6,81,29.88,10.0,SW,9.2,-,N/A,,Partly Cloudy,220,2012-10-20 13:15:00
6:35 AM,41.0,33.8,76,29.87,10.0,SSW,9.2,-,N/A,,Scattered Clouds,210,2012-10-20 13:35:00
6:55 AM,41.0,33.8,76,29.87,10.0,South,16.1,-,N/A,,Scattered Clouds,190,2012-10-20 13:55:00
7:15 AM,39.2,33.8,81,29.87,10.0,South,8.1,16.1,N/A,,Scattered Clouds,190,2012-10-20 14:15:00
7:35 AM,39.2,33.8,81,29.87,10.0,SSW,10.4,-,N/A,,Scattered Clouds,200,2012-10-20 14:35:00
7:55 AM,41.0,33.8,76,29.87,10.0,SSW,10.4,-,N/A,,Clear,200,2012-10-20 14:55:00
8:15 AM,39.2,33.8,81,29.87,10.0,SSW,8.1,-,N/A,,Clear,200,2012-10-20 15:15:00
8:35 AM,39.2,33.8,81,29.89,10.0,South,9.2,-,N/A,,Clear,190,2012-10-20 15:35:00
8:55 AM,42.8,35.6,76,29.88,10.0,South,4.6,-,N/A,,Mostly Cloudy,170,2012-10-20 15:55:00
9:15 AM,41.0,35.6,81,29.89,10.0,SSE,9.2,16.1,N/A,,Scattered Clouds,160,2012-10-20 16:15:00
9:35 AM,41.0,33.8,76,29.89,10.0,South,6.9,-,N/A,,Clear,180,2012-10-20 16:35:00
9:55 AM,42.8,35.6,76,29.89,10.0,SSW,9.2,-,N/A,,Clear,200,2012-10-20 16:55:00
10:15 AM,44.6,35.6,71,29.90,10.0,SSW,12.7,17.3,N/A,,Clear,200,2012-10-20 17:15:00
10:35 AM,46.4,37.4,71,29.90,10.0,South,11.5,-,N/A,,Clear,190,2012-10-20 17:35:00
10:55 AM,46.4,37.4,71,29.91,10.0,South,11.5,-,N/A,,Clear,190,2012-10-20 17:55:00
11:15 AM,48.2,35.6,62,29.91,10.0,SSW,13.8,19.6,N/A,,Clear,210,2012-10-20 18:15:00
11:35 AM,48.2,35.6,62,29.90,10.0,SSW,12.7,18.4,N/A,,Clear,210,2012-10-20 18:35:00
11:55 AM,48.2,35.6,62,29.90,10.0,SSW,12.7,21.9,N/A,,Partly Cloudy,200,2012-10-20 18:55:00
12:15 PM,48.2,35.6,62,29.91,10.0,SSW,15.0,19.6,N/A,,Partly Cloudy,200,2012-10-20 19:15:00
12:35 PM,51.8,35.6,54,29.91,10.0,SSW,17.3,23.0,N/A,,Clear,200,2012-10-20 19:35:00
12:55 PM,50.0,35.6,58,29.90,10.0,SSW,15.0,21.9,N/A,,Partly Cloudy,200,2012-10-20 19:55:00
1:15 PM,51.8,35.6,54,29.89,10.0,South,15.0,19.6,N/A,,Clear,180,2012-10-20 20:15:00
1:35 PM,51.8,35.6,54,29.88,10.0,SSW,16.1,20.7,N/A,,Clear,200,2012-10-20 20:35:00
1:55 PM,50.0,33.8,54,29.89,10.0,South,10.4,-,N/A,,Scattered Clouds,190,2012-10-20 20:55:00
2:15 PM,48.2,33.8,58,29.89,10.0,SSW,15.0,-,N/A,,Mostly Cloudy,210,2012-10-20 21:15:00
2:35 PM,42.8,35.6,76,29.91,8.0,SSW,11.5,-,0.03,,Overcast,200,2012-10-20 21:35:00
2:55 PM,42.8,37.4,81,29.90,10.0,South,10.4,-,0.03,,Mostly Cloudy,180,2012-10-20 21:55:00
3:15 PM,44.6,39.2,81,29.88,10.0,South,11.5,-,N/A,,Scattered Clouds,190,2012-10-20 22:15:00
3:35 PM,44.6,37.4,76,29.89,10.0,South,10.4,-,N/A,,Clear,190,2012-10-20 22:35:00
3:55 PM,44.6,37.4,76,29.88,10.0,South,13.8,-,N/A,,Clear,180,2012-10-20 22:55:00
4:15 PM,44.6,37.4,76,29.88,10.0,South,12.7,-,N/A,,Clear,180,2012-10-20 23:15:00
4:35 PM,44.6,37.4,76,29.87,10.0,South,15.0,19.6,N/A,,Clear,180,2012-10-20 23:35:00
4:55 PM,44.6,37.4,76,29.87,10.0,South,16.1,23.0,0.01,,Clear,180,2012-10-20 23:55:00
5:15 PM,44.6,35.6,71,29.87,10.0,South,11.5,20.7,N/A,,Clear,170,2012-10-21 00:15:00
5:35 PM,42.8,35.6,76,29.87,10.0,South,10.4,-,N/A,,Clear,170,2012-10-21 00:35:00
5:55 PM,42.8,35.6,76,29.88,10.0,South,8.1,-,N/A,,Scattered Clouds,170,2012-10-21 00:55:00
6:15 PM,42.8,35.6,76,29.87,10.0,SSE,10.4,-,N/A,,Mostly Cloudy,160,2012-10-21 01:15:00
6:35 PM,42.8,35.6,76,29.88,10.0,South,8.1,-,N/A,,Mostly Cloudy,170,2012-10-21 01:35:00
6:55 PM,42.8,35.6,76,29.88,10.0,South,8.1,-,N/A,,Mostly Cloudy,170,2012-10-21 01:55:00
7:15 PM,42.8,37.4,81,29.87,10.0,South,9.2,-,N/A,,Mostly Cloudy,180,2012-10-21 02:15:00
7:35 PM,42.8,37.4,81,29.88,10.0,South,8.1,-,N/A,,Overcast,170,2012-10-21 02:35:00
7:55 PM,42.8,37.4,81,29.87,10.0,South,9.2,-,N/A,,Overcast,170,2012-10-21 02:55:00
8:15 PM,42.8,37.4,81,29.88,10.0,South,10.4,-,N/A,,Overcast,170,2012-10-21 03:15:00
8:35 PM,41.0,35.6,81,29.87,10.0,South,10.4,-,N/A,,Scattered Clouds,180,2012-10-21 03:35:00
8:55 PM,39.2,35.6,87,29.88,10.0,SSW,5.8,-,N/A,,Scattered Clouds,210,2012-10-21 03:55:00
9:15 PM,39.2,35.6,87,29.89,10.0,South,6.9,-,N/A,,Scattered Clouds,190,2012-10-21 04:15:00
9:35 PM,39.2,35.6,87,29.88,10.0,SSE,6.9,-,N/A,,Scattered Clouds,160,2012-10-21 04:35:00
9:55 PM,39.2,35.6,87,29.89,10.0,SSE,4.6,-,N/A,,Scattered Clouds,160,2012-10-21 04:55:00
10:15 PM,41.0,35.6,81,29.88,10.0,South,6.9,-,N/A,,Mostly Cloudy,170,2012-10-21 05:15:00
10:35 PM,41.0,35.6,81,29.89,10.0,SW,5.8,-,N/A,,Mostly Cloudy,220,2012-10-21 05:35:00
10:55 PM,39.2,35.6,87,29.88,10.0,SSW,5.8,-,N/A,,Overcast,210,2012-10-21 05:55:00
11:15 PM,41.0,35.6,81,29.90,10.0,South,10.4,-,0.01,,Mostly Cloudy,190,2012-10-21 06:15:00
11:35 PM,41.0,37.4,87,29.88,10.0,SW,10.4,-,0.04,,Overcast,220,2012-10-21 06:35:00
11:55 PM,41.0,35.6,81,29.89,9.0,SSW,8.1,-,0.07,,Overcast,210,2012-10-21 06:55:00